GIA122 WAHS-WIII

Flight info

Callsign GIA122
Flight time N/A
Altitude 26000
Route KIDET W16 IMU
Aircraft A35K/H-SDE2E3GHIJ3J4J5LM1ORWXY/LB1D1

Departure

Time 2026-04-27 11:23
Airport Jenderal Ahmad Yani Airport (WAHS)

Arrival

Time N/A
Airport Soekarno-Hatta International Airport (WIII)
Time Latitude Longitude Altitude Speed Heading
2026-04-27 10:49 -6.96661 110.37368 25 ft 0 kts 41°
2026-04-27 11:07 -6.96669 110.37361 25 ft 1 kts 43°
2026-04-27 11:07 -6.96682 110.37347 25 ft 3 kts 58°
2026-04-27 11:08 -6.96690 110.37327 25 ft 2 kts 82°
2026-04-27 11:08 -6.96688 110.37306 25 ft 3 kts 109°
2026-04-27 11:08 -6.96681 110.37292 25 ft 0 kts 127°
2026-04-27 11:14 -6.96682 110.37292 25 ft 0 kts 127°
2026-04-27 11:14 -6.96688 110.37301 25 ft 2 kts 128°
2026-04-27 11:15 -6.96703 110.37320 25 ft 4 kts 129°
2026-04-27 11:15 -6.96726 110.37348 25 ft 6 kts 130°
2026-04-27 11:15 -6.96758 110.37385 25 ft 7 kts 130°
2026-04-27 11:15 -6.96796 110.37431 25 ft 9 kts 132°
2026-04-27 11:16 -6.96841 110.37483 25 ft 10 kts 128°
2026-04-27 11:16 -6.96879 110.37529 26 ft 2 kts 131°
2026-04-27 11:16 -6.96898 110.37545 27 ft 0 kts 149°
2026-04-27 11:16 -6.96900 110.37547 27 ft 0 kts 156°
2026-04-27 11:17 -6.96910 110.37550 27 ft 0 kts 166°
2026-04-27 11:17 -6.96912 110.37550 27 ft 0 kts 179°
2026-04-27 11:17 -6.96915 110.37550 27 ft 0 kts 183°
2026-04-27 11:18 -6.96918 110.37549 27 ft 0 kts 191°
2026-04-27 11:18 -6.96934 110.37544 28 ft 6 kts 201°
2026-04-27 11:18 -6.97008 110.37492 28 ft 20 kts 220°
2026-04-27 11:18 -6.97105 110.37424 30 ft 12 kts 194°
2026-04-27 11:19 -6.97171 110.37452 31 ft 10 kts 132°
2026-04-27 11:19 -6.97220 110.37511 31 ft 11 kts 128°
2026-04-27 11:19 -6.97271 110.37574 31 ft 11 kts 127°
2026-04-27 11:19 -6.97323 110.37642 31 ft 12 kts 129°
2026-04-27 11:20 -6.97398 110.37727 33 ft 20 kts 133°
2026-04-27 11:20 -6.97509 110.37860 34 ft 26 kts 128°
2026-04-27 11:20 -6.97624 110.38007 35 ft 26 kts 133°
2026-04-27 11:20 -6.97712 110.38132 35 ft 21 kts 124°
2026-04-27 11:21 -6.97757 110.38181 35 ft 1 kts 164°
2026-04-27 11:21 -6.97764 110.38176 35 ft 1 kts 238°
2026-04-27 11:21 -6.97761 110.38161 35 ft 3 kts 290°
2026-04-27 11:21 -6.97750 110.38142 34 ft 0 kts 307°
2026-04-27 11:22 -6.97686 110.38061 34 ft 49 kts 310°
2026-04-27 11:22 -6.97283 110.37582 32 ft 127 kts 310°
2026-04-27 11:23 -6.96568 110.36737 89 ft 182 kts 310°
2026-04-27 11:23 -6.95730 110.35735 628 ft 195 kts 309°
2026-04-27 11:23 -6.94865 110.34673 1444 ft 193 kts 310°
2026-04-27 11:23 -6.94100 110.33628 2065 ft 190 kts 304°
2026-04-27 11:24 -6.93351 110.32464 2366 ft 207 kts 303°
2026-04-27 11:24 -6.92553 110.31197 2738 ft 222 kts 303°
2026-04-27 11:24 -6.91704 110.29848 3177 ft 236 kts 303°
2026-04-27 11:24 -6.90791 110.28398 3588 ft 252 kts 303°
2026-04-27 11:25 -6.89818 110.26859 4019 ft 268 kts 302°
2026-04-27 11:25 -6.88795 110.25241 4632 ft 276 kts 302°
2026-04-27 11:25 -6.87764 110.23608 5359 ft 279 kts 302°
2026-04-27 11:25 -6.86717 110.21952 6077 ft 283 kts 302°
2026-04-27 11:26 -6.85658 110.20279 6801 ft 286 kts 302°
2026-04-27 11:26 -6.84600 110.18606 7461 ft 290 kts 302°
2026-04-27 11:26 -6.83506 110.16875 8127 ft 294 kts 302°
2026-04-27 11:26 -6.82405 110.15135 8786 ft 298 kts 302°
2026-04-27 11:27 -6.81293 110.13378 9429 ft 301 kts 302°
2026-04-27 11:27 -6.80165 110.11596 10054 ft 305 kts 302°
2026-04-27 11:27 -6.79022 110.09790 10552 ft 313 kts 302°
2026-04-27 11:27 -6.77802 110.07865 10860 ft 329 kts 302°
2026-04-27 11:28 -6.76557 110.05901 11136 ft 344 kts 302°
2026-04-27 11:28 -6.75224 110.03798 11410 ft 360 kts 302°
2026-04-27 11:28 -6.73859 110.01643 11688 ft 374 kts 302°
2026-04-27 11:28 -6.72450 109.99419 12109 ft 383 kts 302°
2026-04-27 11:29 -6.71012 109.97150 12646 ft 387 kts 302°
2026-04-27 11:29 -6.69549 109.94843 13218 ft 391 kts 302°
2026-04-27 11:29 -6.68088 109.92538 13759 ft 394 kts 302°
2026-04-27 11:29 -6.66608 109.90205 14333 ft 396 kts 302°
2026-04-27 11:30 -6.65123 109.87866 14850 ft 399 kts 302°
2026-04-27 11:30 -6.63629 109.85512 15369 ft 402 kts 302°
2026-04-27 11:30 -6.62134 109.83156 15873 ft 405 kts 302°
2026-04-27 11:30 -6.60607 109.80750 16394 ft 407 kts 302°
2026-04-27 11:31 -6.59077 109.78338 16906 ft 408 kts 302°
2026-04-27 11:31 -6.57553 109.75937 17392 ft 411 kts 302°
2026-04-27 11:31 -6.56014 109.73513 17867 ft 413 kts 302°
2026-04-27 11:31 -6.54460 109.71066 18311 ft 416 kts 302°
2026-04-27 11:32 -6.52897 109.68605 18749 ft 419 kts 302°
2026-04-27 11:32 -6.51335 109.66147 19187 ft 422 kts 302°
2026-04-27 11:32 -6.49754 109.63658 19607 ft 424 kts 302°
2026-04-27 11:32 -6.48144 109.61123 20051 ft 426 kts 302°
2026-04-27 11:33 -6.46550 109.58614 20467 ft 429 kts 302°
2026-04-27 11:33 -6.44936 109.56074 20886 ft 431 kts 302°
2026-04-27 11:33 -6.43315 109.53524 21301 ft 434 kts 302°
2026-04-27 11:33 -6.41710 109.51000 21683 ft 436 kts 302°
2026-04-27 11:34 -6.40055 109.48394 22069 ft 439 kts 302°
2026-04-27 11:34 -6.38411 109.45810 22443 ft 442 kts 302°
2026-04-27 11:34 -6.36756 109.43206 22812 ft 444 kts 302°
2026-04-27 11:34 -6.35093 109.40592 23193 ft 447 kts 302°
2026-04-27 11:35 -6.33401 109.37933 23564 ft 449 kts 302°
2026-04-27 11:35 -6.31785 109.35263 23882 ft 453 kts 297°
2026-04-27 11:35 -6.30636 109.32319 24184 ft 456 kts 285°
2026-04-27 11:35 -6.30091 109.29171 24549 ft 457 kts 273°
2026-04-27 11:36 -6.30037 109.25966 24925 ft 458 kts 269°
2026-04-27 11:36 -6.30073 109.22785 25189 ft 462 kts 269°
2026-04-27 11:36 -6.30121 109.19559 25443 ft 466 kts 269°
2026-04-27 11:36 -6.30161 109.16264 25737 ft 468 kts 269°
2026-04-27 11:37 -6.30191 109.13036 25796 ft 469 kts 269°
2026-04-27 11:37 -6.30213 109.09726 25802 ft 468 kts 269°
2026-04-27 11:37 -6.30230 109.06486 25805 ft 468 kts 269°
2026-04-27 11:37 -6.30245 109.03199 25805 ft 469 kts 269°
2026-04-27 11:38 -6.30258 108.99968 25806 ft 468 kts 269°
2026-04-27 11:38 -6.30271 108.96687 25809 ft 468 kts 269°
2026-04-27 11:38 -6.30283 108.93414 25808 ft 467 kts 269°
2026-04-27 11:38 -6.30294 108.90150 25805 ft 468 kts 270°
2026-04-27 11:39 -6.30305 108.86897 25807 ft 468 kts 270°
2026-04-27 11:39 -6.30316 108.83639 25809 ft 467 kts 270°
2026-04-27 11:39 -6.30326 108.80399 25808 ft 467 kts 270°
2026-04-27 11:39 -6.30337 108.77100 25808 ft 467 kts 269°
2026-04-27 11:40 -6.30347 108.73862 25809 ft 467 kts 269°
2026-04-27 11:40 -6.30357 108.70604 25811 ft 466 kts 269°
2026-04-27 11:40 -6.30366 108.67351 25810 ft 466 kts 270°
2026-04-27 11:40 -6.30376 108.64099 25809 ft 466 kts 270°
2026-04-27 11:41 -6.30385 108.60834 25812 ft 465 kts 270°
2026-04-27 11:41 -6.30394 108.57601 25814 ft 464 kts 270°
2026-04-27 11:41 -6.30401 108.54347 25812 ft 464 kts 270°
2026-04-27 11:41 -6.30409 108.51127 25810 ft 464 kts 270°
2026-04-27 11:42 -6.30417 108.47872 25814 ft 464 kts 270°
2026-04-27 11:42 -6.30423 108.44649 25817 ft 463 kts 270°
2026-04-27 11:42 -6.30428 108.41406 25819 ft 463 kts 270°
2026-04-27 11:42 -6.30435 108.38196 25817 ft 463 kts 270°
2026-04-27 11:43 -6.30440 108.34946 25821 ft 462 kts 270°
2026-04-27 11:43 -6.30354 108.31819 25824 ft 462 kts 272°
2026-04-27 11:43 -6.30229 108.28975 25822 ft 462 kts 272°
2026-04-27 11:43 -6.30077 108.25751 25819 ft 463 kts 273°
2026-04-27 11:44 -6.29921 108.22520 25819 ft 462 kts 272°
2026-04-27 11:44 -6.29766 108.19317 25634 ft 463 kts 272°
2026-04-27 11:44 -6.29612 108.16122 25402 ft 458 kts 272°
2026-04-27 11:44 -6.29455 108.12894 25163 ft 457 kts 272°
2026-04-27 11:45 -6.29303 108.09727 24926 ft 454 kts 272°
2026-04-27 11:45 -6.29151 108.06577 24687 ft 452 kts 272°
2026-04-27 11:45 -6.28999 108.03445 24451 ft 451 kts 272°
2026-04-27 11:45 -6.28847 108.00280 24212 ft 450 kts 272°
2026-04-27 11:46 -6.28696 107.97164 23975 ft 446 kts 272°
2026-04-27 11:46 -6.28546 107.94070 23740 ft 446 kts 272°
2026-04-27 11:46 -6.28394 107.90940 23504 ft 444 kts 272°
2026-04-27 11:46 -6.28245 107.87884 23264 ft 443 kts 272°
2026-04-27 11:47 -6.28093 107.84785 22928 ft 441 kts 272°
2026-04-27 11:47 -6.27945 107.81738 22557 ft 438 kts 272°
2026-04-27 11:47 -6.27795 107.78676 22173 ft 434 kts 272°
2026-04-27 11:47 -6.27647 107.75652 21745 ft 431 kts 272°
2026-04-27 11:48 -6.27501 107.72660 21312 ft 429 kts 272°
2026-04-27 11:48 -6.27356 107.69698 20889 ft 426 kts 272°
2026-04-27 11:48 -6.27211 107.66743 20473 ft 423 kts 272°
2026-04-27 11:48 -6.27068 107.63815 20064 ft 420 kts 272°
2026-04-27 11:49 -6.26925 107.60908 19642 ft 417 kts 272°
2026-04-27 11:49 -6.26783 107.58015 19232 ft 415 kts 272°
2026-04-27 11:49 -6.26640 107.55111 18816 ft 412 kts 272°
2026-04-27 11:49 -6.26498 107.52242 18392 ft 410 kts 272°
2026-04-27 11:50 -6.26356 107.49390 17973 ft 408 kts 272°
2026-04-27 11:50 -6.26218 107.46585 17582 ft 406 kts 272°
2026-04-27 11:50 -6.26077 107.43751 17173 ft 403 kts 272°
2026-04-27 11:50 -6.25938 107.40958 16760 ft 402 kts 272°
2026-04-27 11:51 -6.25799 107.38165 16357 ft 399 kts 272°
2026-04-27 11:51 -6.25661 107.35394 15940 ft 398 kts 272°
2026-04-27 11:51 -6.25386 107.29844 15145 ft 394 kts 272°
2026-04-27 11:52 -6.25251 107.27133 14770 ft 391 kts 272°
2026-04-27 11:52 -6.25116 107.24415 14397 ft 388 kts 272°
2026-04-27 11:52 -6.24981 107.21699 14042 ft 385 kts 272°
2026-04-27 11:52 -6.24847 107.19025 13676 ft 382 kts 271°
2026-04-27 11:53 -6.24714 107.16373 13275 ft 380 kts 272°
2026-04-27 11:53 -6.24584 107.13740 12888 ft 377 kts 272°
2026-04-27 11:53 -6.24453 107.11120 12490 ft 375 kts 272°
2026-04-27 11:53 -6.24323 107.08530 12118 ft 373 kts 271°
2026-04-27 11:54 -6.24194 107.05946 11746 ft 370 kts 272°
2026-04-27 11:54 -6.24063 107.03368 11388 ft 367 kts 271°
2026-04-27 11:54 -6.23936 107.00852 11035 ft 364 kts 271°
2026-04-27 11:54 -6.23807 106.98322 10673 ft 361 kts 271°
2026-04-27 11:55 -6.23682 106.95817 10354 ft 357 kts 271°
2026-04-27 11:55 -6.23558 106.93350 10295 ft 343 kts 271°
2026-04-27 11:55 -6.23439 106.91004 10224 ft 331 kts 271°
2026-04-27 11:55 -6.23324 106.88753 10155 ft 319 kts 271°
2026-04-27 11:56 -6.23213 106.86559 10091 ft 307 kts 271°
2026-04-27 11:56 -6.23106 106.84454 10036 ft 295 kts 271°
2026-04-27 11:56 -6.23002 106.82421 9840 ft 292 kts 272°
2026-04-27 11:56 -6.22900 106.80386 9567 ft 291 kts 271°
2026-04-27 11:57 -6.22799 106.78375 9294 ft 290 kts 271°
2026-04-27 11:57 -6.22697 106.76360 9076 ft 286 kts 272°
2026-04-27 11:57 -6.22595 106.74362 8859 ft 283 kts 271°
2026-04-27 11:57 -6.22495 106.72379 8618 ft 282 kts 272°
2026-04-27 11:58 -6.22395 106.70436 8382 ft 280 kts 272°
2026-04-27 11:58 -6.22295 106.68482 8137 ft 279 kts 272°
2026-04-27 11:58 -6.22196 106.66528 7898 ft 277 kts 272°
2026-04-27 11:58 -6.22099 106.64612 7656 ft 276 kts 272°
2026-04-27 11:59 -6.22000 106.62676 7406 ft 275 kts 272°
2026-04-27 11:59 -6.21902 106.60767 7162 ft 274 kts 272°
2026-04-27 11:59 -6.21805 106.58843 6911 ft 273 kts 272°
2026-04-27 11:59 -6.21706 106.56937 6656 ft 273 kts 272°
2026-04-27 12:00 -6.21610 106.55050 6405 ft 272 kts 272°
2026-04-27 12:00 -6.21512 106.53138 6156 ft 272 kts 273°
2026-04-27 12:00 -6.21414 106.51244 5909 ft 271 kts 273°
2026-04-27 12:00 -6.21316 106.49366 5668 ft 271 kts 273°
2026-04-27 12:01 -6.21218 106.47474 5424 ft 270 kts 273°
2026-04-27 12:01 -6.21121 106.45606 5245 ft 265 kts 273°
2026-04-27 12:01 -6.21026 106.43795 5220 ft 254 kts 273°
2026-04-27 12:01 -6.20937 106.42072 5194 ft 236 kts 273°
2026-04-27 12:02 -6.20854 106.40459 5146 ft 226 kts 273°
2026-04-27 12:02 -6.20775 106.38927 5067 ft 212 kts 273°
2026-04-27 12:02 -6.20702 106.37515 5081 ft 195 kts 273°
2026-04-27 12:02 -6.20637 106.36176 5012 ft 189 kts 270°
2026-04-27 12:03 -6.20976 106.34938 4949 ft 179 kts 227°
2026-04-27 12:03 -6.21945 106.34220 4984 ft 173 kts 198°
2026-04-27 12:03 -6.23104 106.34079 4990 ft 165 kts 168°
2026-04-27 12:03 -6.24147 106.34524 4824 ft 160 kts 137°
2026-04-27 12:04 -6.24809 106.35415 4693 ft 160 kts 109°
2026-04-27 12:04 -6.24962 106.36507 4554 ft 161 kts 82°
2026-04-27 12:04 -6.24574 106.37556 4404 ft 161 kts 61°
2026-04-27 12:04 -6.24100 106.38584 4224 ft 161 kts 77°
2026-04-27 12:05 -6.24009 106.39713 4016 ft 161 kts 84°
2026-04-27 12:05 -6.23705 106.40775 3809 ft 161 kts 70°
2026-04-27 12:05 -6.23285 106.41826 3588 ft 160 kts 68°
2026-04-27 12:05 -6.22853 106.42860 3374 ft 160 kts 68°
2026-04-27 12:06 -6.22427 106.43883 3157 ft 159 kts 68°
2026-04-27 12:06 -6.22008 106.44909 3026 ft 158 kts 68°
2026-04-27 12:06 -6.21594 106.45933 3012 ft 159 kts 68°
2026-04-27 12:06 -6.21184 106.46958 3004 ft 158 kts 68°
2026-04-27 12:07 -6.20773 106.47990 2999 ft 158 kts 69°
2026-04-27 12:07 -6.20363 106.49024 2995 ft 158 kts 68°
2026-04-27 12:07 -6.19955 106.50054 2849 ft 158 kts 69°
2026-04-27 12:07 -6.19547 106.51080 2649 ft 157 kts 68°
2026-04-27 12:08 -6.19140 106.52107 2454 ft 157 kts 68°
2026-04-27 12:08 -6.18733 106.53132 2253 ft 157 kts 68°
2026-04-27 12:08 -6.18330 106.54144 2056 ft 156 kts 68°
2026-04-27 12:08 -6.17928 106.55154 1866 ft 156 kts 68°
2026-04-27 12:09 -6.17526 106.56163 1671 ft 155 kts 68°
2026-04-27 12:09 -6.17123 106.57176 1473 ft 155 kts 67°
2026-04-27 12:09 -6.16731 106.58158 1278 ft 155 kts 67°
2026-04-27 12:09 -6.16331 106.59162 1084 ft 154 kts 67°
2026-04-27 12:10 -6.15932 106.60165 887 ft 154 kts 67°
2026-04-27 12:10 -6.15538 106.61151 698 ft 153 kts 67°
2026-04-27 12:10 -6.15139 106.62149 505 ft 153 kts 67°
2026-04-27 12:10 -6.14743 106.63145 313 ft 152 kts 67°
2026-04-27 12:11 -6.14351 106.64130 120 ft 151 kts 67°
2026-04-27 12:11 -6.13968 106.65080 44 ft 137 kts 66°
2026-04-27 12:11 -6.13662 106.65836 43 ft 103 kts 67°
2026-04-27 12:11 -6.13427 106.66449 39 ft 78 kts 69°
2026-04-27 12:12 -6.13251 106.66868 35 ft 58 kts 67°
2026-04-27 12:12 -6.13114 106.67200 34 ft 57 kts 65°